Location: Unspecified
(0.0000°N, 0.0000°E)
Time: 12:09:34
(UTC+00:00)

Hubble Space Telescope - Pass Details

Date: 04 December 2019
Orbit: 536 x 540 km, 28.5° (Epoch: 10 December)

Event Time Altitude Azimuth Distance (km) Brightness Sun altitude
Rises 20:29:08 0° 263° (W) 2,668 5.2 -36.3°
Reaches altitude 10° 20:32:34 10° 234° (SW) 1,780 4.1 -37.0°
Enters shadow 20:32:42 10° 232° (SW) 1,760 4.1 -37.0°
